Terminal Aerodrome Forecast
Issued by NWS Blacksburg, VA

Current Version | Previous Version | Graphics & Text | Print | Product List | Glossary On
Versions: 1 2 3 4 5 6 7 8 9 10 11 12 13 14 15 16 17 18 19 20 21 22 23 24 25 26 27 28 29 30 31 32
000
FTUS41 KRNK 202327
TAFBLF
TAF
KBLF 202327Z 2100/2124 27003KT 5SM BR OVC003
     FM210900 25003KT 1/2SM FG OVC002
     FM211400 VRB03KT P6SM BKN025=

USA.gov is the U.S. government's official web portal to all federal, state and local government web resources and services.